Showing default

METEOR 2-5, 11605

Orbit data source: Space-Track

METEOR 2-5, 11605 is a Commonwealth of Independent States-origin payload satellite in LEO that was launched on Wed, 31 Oct 1979 UTC via a VOSTOK 8A92M launch vehicle from the Plesetsk Missile And Space Complex (PKMTR). Payloads include a variety of satellites, spacecraft, and rockets equipped with specific instruments for various scientific and technological missions. These include communications satellites like Starlink; space stations such as the ISS; scientific satellites like the Hubble; Earth observation satellites from companies like Planet Labs, Umbra, and HawkEye 360; GPS; miniature CubeSats for education and research; and military/defense satellites.

Loading next visibility...
METEOR 2-5 details
Identifier
11605, 1979-095A
Orbit
LEO
Last TLE update7 hours ago
Origin
Flag of CISGUKOSR/GMS (CIS)
ManufacturerVNIIEM
MissionCivil Weather
Bus & MotorMETEOR-2, Unknown motor
Mass~1,500 kg wet, ~1,500 kg dry
Launch date (UTC)
1979-10-31 (45 years ago)
Launch vehicle
VOSTOK 8A92M
Launch site
Plesetsk Missile And Space Complex (PKMTR)
Object type
Payload
Rocket body
Debris
Shape & HBRCyl + 2 Pan, 4.5 m
Radar Cross Section5.718 m², Large (>1 m²)

Expand to show TLE details & history

TLE from 7 hours ago
0 METEOR 2-5
1 11605U 79095A   24361.24950365  .00000065  00000-0  31331-4 0  9999
2 11605  81.2094  34.7326 0011435 347.9616  12.1279 14.07360858317638
Epoch: 2024-12-26T05:59Z
Definitive object data (Epoch: 2024-12-26T05:59:17.115Z)
Latitude0.00008°
Longitude-150.32031°
Altitude863.209 km
Speed7.425 km/s
True Right ascension02h 18m 55s
True Declination0° 00' 00"
Sunlit
Object was in daylight at TLE epoch
Visualization TLE readout
Latitude12.99369°
Longitude-148.56525°
Altitude863.111 km
Speed7.426 km/s
Apparent Right ascension01h 32m 14s
Apparent Declination-12° 03' 23"
Sunlit
Object is in full shadow
Visualization observer readout
Local Sidereal Time12:14:04
Azimuth322.814° NNW
Elevation-57.234°
Doppler factor1
Orbital elements
Apogee altitude873.88 km
Perigee altitude857.313 km
Semi-major axis7,243.733 km
Eccentricity0.0011435
Inclination81.2094°
RAAN34.7326°
Arg. of periapsis347.9616°
True anomaly12.15547°
Mean anomaly12.1279°
Eccentric anomaly12.14168°
Mean motion3.52046 °/min
BSTAR0.000031331
Orbital period102.26 mins
Loading maneuver chart data...

METEOR 2-5 Visibility forecast

Observer location: undefined°, undefined

Span
Click to sort rows by Start time (UTC) header in descending order
Start Az.
Max El. time (UTC)
Max El. Az.
Max El.
End time (UTC)
End Az.
9 mins2024-12-26 13:23:29.870Z17.187° NNE2024-12-26 13:27:29.870Z68.46° E25.687°2024-12-26 13:32:29.870Z130.426° SE
8 mins2024-12-26 15:07:29.870Z323.779° NNW2024-12-26 15:11:29.870Z257.471° W30.216°2024-12-26 15:15:29.870Z207.448° SW
8 mins2024-12-27 02:35:29.870Z148.787° SSE2024-12-27 02:39:29.870Z80.693° E31.302°2024-12-27 02:43:29.870Z29.009° NE
7 mins2024-12-27 04:19:29.870Z245.972° WSW2024-12-27 04:22:29.870Z290.032° WNW24.397°2024-12-27 04:26:29.870Z341.366° N
|